Change the Weather History Date:

Tuesday, July 9, 2013

  Actual Average Record
Temperature  
Mean Temperature 73 °F 68 °F  
Max Temperature 94 °F 89 °F 100 °F (2002)
Min Temperature 52 °F 49 °F 36 °F (1993)
Degree Days  
Heating Degree Days 0 0  
Month to date heating degree days 0 8  
Since 1 June heating degree days 80 168  
Since 1 July heating degree days 0 8  
Cooling Degree Days 8 4  
Month to date cooling degree days 94 29  
Year to date cooling degree days 187 61  
Since 1 June cooling degree days 186 58  
Growing Degree Days 22 (Base 50)    
Moisture  
Dew Point 21 °F    
Average Humidity 20    
Maximum Humidity 35    
Minimum Humidity 5    
Precipitation  
Precipitation 0.00 in 0.02 in 0.26 in (1990)
Month to date precipitation 0.07 0.12  
Year to date precipitation 3.20 5.20  
Sea Level Pressure  
Sea Level Pressure 29.93 in    
Wind  
Wind Speed 7 mph (SSE)    
Max Wind Speed 15 mph    
Max Gust Speed 20 mph    
T = Trace of Precipitation, MM = Missing Value Source: NWS Daily Summary

Daily Weather History Graph

Daily Weather History Graph

Search for Another Location

Airport or City:

Trip Planner

Search our weather history database for the weather conditions in past years. The results will help you decide how hot, cold, wet, or windy it might be!

Date:

Astronomy

Jul. 09, 2013 Rise Set
Actual Time 5:24 AM PDT 8:13 PM PDT
Civil Twilight 4:52 AM PDT 8:45 PM PDT
Nautical Twilight 4:12 AM PDT 9:25 PM PDT
Astronomical Twilight 3:26 AM PDT 10:11 PM PDT
Moon 6:52 AM PDT (7/9) 8:53 PM PDT (7/9)
Length of Visible Light 15h 52m
Length of Day
14h 48m
New Moon, 2% of the Moon is Illuminated
Jul 9
New Moon
Jul 15
First Quarter
Jul 22
Full
Jul 29
Last Quarter
Aug 6
New

Hourly Weather History & Observations

Time (PDT) Temp. Dew Point Humidity Pressure Visibility Wind Dir Wind Speed Gust Speed Precip Events Conditions
12:53 AM 63.0 °F 24.1 °F 23% 29.91 in - SW 4.6 mph - N/A   Unknown
1:53 AM 57.0 °F 25.0 °F 29% 29.93 in - SSW 5.8 mph - N/A   Unknown
2:53 AM 55.9 °F 23.0 °F 28% 29.94 in - SSE 6.9 mph - N/A   Unknown
3:53 AM 54.0 °F 23.0 °F 30% 29.95 in - South 8.1 mph - N/A   Unknown
4:53 AM 53.1 °F 25.0 °F 34% 29.97 in - South 5.8 mph - N/A   Unknown
5:53 AM 52.0 °F 25.0 °F 35% 29.98 in - SW 6.9 mph - N/A   Unknown
6:53 AM 66.0 °F 26.1 °F 22% 29.97 in - Calm Calm - N/A   Unknown
7:53 AM 73.0 °F 25.0 °F 17% 29.98 in - Calm Calm - N/A   Unknown
8:53 AM 78.1 °F 28.0 °F 16% 29.98 in - North 5.8 mph - N/A   Unknown
9:53 AM 82.0 °F 32.0 °F 16% 29.98 in - North 6.9 mph - N/A   Unknown
10:53 AM 86.0 °F 28.0 °F 12% 29.98 in - East 4.6 mph - N/A   Unknown
11:53 AM 90.0 °F 23.0 °F 9% 29.96 in - Variable 5.8 mph - N/A   Unknown
12:53 PM 91.0 °F 21.0 °F 8% 29.94 in - North - - N/A   Unknown
1:53 PM 93.0 °F 16.0 °F 6% 29.94 in - South 9.2 mph - N/A   Unknown
2:53 PM 93.9 °F 19.9 °F 7% 29.93 in - North - - N/A   Unknown
3:53 PM 93.9 °F 14.0 °F 5% 29.91 in - ESE 15.0 mph - N/A   Unknown
4:53 PM 93.0 °F 16.0 °F 6% 29.91 in - ESE 8.1 mph - N/A   Unknown
5:53 PM 93.0 °F 12.9 °F 5% 29.88 in - Variable 5.8 mph 16.1 mph N/A   Unknown
6:53 PM 90.0 °F 12.9 °F 6% 29.86 in - SE 5.8 mph - N/A   Unknown
7:53 PM 82.0 °F 17.1 °F 9% 29.86 in - ESE 9.2 mph - N/A   Unknown
8:53 PM 78.1 °F 15.1 °F 9% 29.88 in - South 3.5 mph - N/A   Unknown
9:53 PM 75.9 °F 15.1 °F 10% 29.89 in - ESE 6.9 mph - N/A   Unknown
10:53 PM 70.0 °F 17.1 °F 13% 29.90 in - SSE 6.9 mph - N/A   Unknown
11:53 PM 69.1 °F 14.0 °F 12% 29.89 in - South 11.5 mph - N/A   Unknown